Location: Zagreb
(45.8000°N, 16.0000°E)
Time: 15:00:03
(UTC+02:00)

Transit 2A Rocket - Pass Details

Date: 15 August 2022
Orbit: 593 x 907 km, 66.7° (Epoch: 25 September)

Event Time Altitude Azimuth Distance (km) Brightness Sun altitude
Rises 18:32:33 0° 210° (SSW) 2,997 8.4 14.7°
Reaches altitude 10° 18:34:54 10° 210° (SSW) 2,046 7.6 14.3°
Maximum altitude 18:39:29 86° 126° (SE) 626 4.8 13.5°
Drops below altitude 10° 18:43:51 10° 34° (NE) 1,950 6.9 12.8°
Sets 18:46:04 0° 34° (NE) 2,844 7.7 12.4°
